Weather History for KTIK - February, 2013

Change the Weather History Date:

Monday, February 4, 2013

  Actual Average Record
Temperature  
Mean Temperature 56 °F -  
Max Temperature 67 °F 48 °F 77 °F (2008)
Min Temperature 43 °F 29 °F 15 °F (2011)
Degree Days  
Heating Degree Days 9    
Growing Degree Days 6 (Base 50)    
Moisture  
Dew Point 31 °F    
Average Humidity 40    
Maximum Humidity 56    
Minimum Humidity 23    
Precipitation  
Precipitation 0.00 in - - ()
Sea Level Pressure  
Sea Level Pressure 29.87 in    
Wind  
Wind Speed 11 mph (NNE)    
Max Wind Speed 14 mph    
Max Gust Speed 21 mph    
Visibility 10 miles    
Events      
Averages and records for this station are not official NWS values.
T = Trace of Precipitation, MM = Missing Value Source: NWS Daily Summary

Daily Weather History Graph

Daily Weather History Graph

Search for Another Location

Airport or City:

Trip Planner

Search our weather history database for the weather conditions in past years. The results will help you decide how hot, cold, wet, or windy it might be!

Date:

Astronomy

Feb. 04, 2013 Rise Set
Actual Time 7:26 AM CST 6:01 PM CST
Civil Twilight 6:59 AM CST 6:27 PM CST
Nautical Twilight 6:29 AM CST 6:57 PM CST
Astronomical Twilight 5:59 AM CST 7:27 PM CST
Moon 2:01 AM CST (2/4) 12:28 PM CST (2/4)
Length of Visible Light 11h 27m
Length of Day
10h 34m
Last Quarter, 37% of the Moon is Illuminated
Feb 4
Last Quarter
Feb 10
New
Feb 17
First Quarter
Feb 25
Full
Mar 4
Last Quarter

Hourly Weather History & Observations

Time (CST) Temp. Windchill Dew Point Humidity Pressure Visibility Wind Dir Wind Speed Gust Speed Precip Events Conditions
12:55 AM 54.1 °F - 29.8 °F 39% 29.88 in 10.0 mi South 13.8 mph - N/A   Scattered Clouds
1:55 AM 54.3 °F - 29.7 °F 39% 29.86 in 10.0 mi SSE 12.7 mph - N/A   Overcast
2:55 AM 53.2 °F - 29.8 °F 41% 29.85 in 10.0 mi SSE 11.5 mph - N/A   Scattered Clouds
4:55 AM 53.4 °F - 30.2 °F 41% 29.83 in 10.0 mi SSE 10.4 mph - N/A   Scattered Clouds
5:55 AM 53.8 °F - 32.0 °F 44% 29.82 in 10.0 mi South 11.5 mph - N/A   Clear
6:55 AM 53.8 °F - 33.1 °F 45% 29.83 in 10.0 mi South 10.4 mph - N/A   Scattered Clouds
7:55 AM 52.5 °F - 34.5 °F 50% 29.84 in 10.0 mi South 8.1 mph - N/A   Mostly Cloudy
8:55 AM 53.6 °F - 35.6 °F 51% 29.85 in 10.0 mi South 8.1 mph - N/A   Partly Cloudy
9:55 AM 56.7 °F - 38.1 °F 50% 29.87 in 10.0 mi SW 9.2 mph - N/A   Partly Cloudy
10:55 AM 59.2 °F - 38.7 °F 47% 29.88 in 10.0 mi West 9.2 mph - N/A   Clear
11:55 AM 61.0 °F - 37.6 °F 42% 29.86 in 10.0 mi NW 3.5 mph - N/A   Clear
12:55 PM 64.8 °F - 35.2 °F 33% 29.84 in 10.0 mi WNW 10.4 mph - N/A   Clear
1:55 PM 66.9 °F - 31.5 °F 27% 29.82 in 10.0 mi North 12.7 mph 20.7 mph N/A   Clear
2:55 PM 67.6 °F - 28.4 °F 23% 29.82 in 10.0 mi NNE 13.8 mph - N/A   Clear
3:55 PM 66.7 °F - 27.3 °F 23% 29.83 in 10.0 mi North 10.4 mph - N/A   Clear
4:55 PM 65.1 °F - 28.0 °F 25% 29.84 in 10.0 mi North 12.7 mph - N/A   Clear
5:55 PM 61.2 °F - 28.6 °F 29% 29.86 in 10.0 mi North 11.5 mph - N/A   Clear
6:55 PM 55.9 °F - 29.7 °F 37% 29.89 in 10.0 mi North 6.9 mph - N/A   Clear
7:55 PM 54.0 °F - 29.1 °F 39% 29.91 in 10.0 mi North 6.9 mph - N/A   Clear
8:55 PM 51.6 °F - 29.5 °F 43% 29.92 in 10.0 mi NNE 8.1 mph - N/A   Clear
9:55 PM 48.4 °F - 28.6 °F 46% 29.94 in 10.0 mi NE 8.1 mph - N/A   Clear
10:55 PM 45.3 °F 41.1 °F 28.6 °F 52% 29.95 in 10.0 mi NE 8.1 mph - N/A   Clear
11:55 PM 43.3 °F 39.9 °F 28.4 °F 56% 29.95 in 10.0 mi ENE 5.8 mph - N/A   Clear